FW6726 Weather Reports


Display with metric or nautical units.
time (UTC)temp
F
wind
direction
speed
MPH
gust
MPH
rain 1hr
in
rain 24hr
in
rain mn
in
humidity
%
barometer
mb
20260504234305 63 203 10.0 16.0 0.00 0.00 0.00 66 1017.0
20260504233805 62 202 8.0 16.0 0.00 0.00 0.00 68 1017.0
20260504233304 62 196 9.0 14.0 0.00 0.00 0.00 69 1017.0
20260504232802 63 199 9.0 14.0 0.00 0.00 0.00 68 1017.0
20260504232304 62 209 10.0 15.0 0.00 0.00 0.00 69 1017.0
20260504231802 62 197 10.0 15.0 0.00 0.00 0.00 69 1017.1
20260504231518 62 199 11.0 16.0 0.00 0.00 0.00 70 1017.3
20260504231505 62 189 11.0 16.0 0.00 0.00 0.00 69 1017.1
20260504230304 63 195 13.0 16.0 0.00 0.00 0.00 68 1017.2
20260504225803 63 200 9.0 13.0 0.00 0.00 0.00 69 1017.3
20260504225304 63 152 8.0 12.0 0.00 0.00 0.00 67 1017.3
20260504224803 63 151 7.0 12.0 0.00 0.00 0.00 65 1017.4
20260504224305 63 159 7.0 12.0 0.00 0.00 0.00 66 1017.4
20260504223804 63 183 6.0 11.0 0.00 0.00 0.00 67 1017.5
20260504223305 63 188 8.0 13.0 0.00 0.00 0.00 67 1017.5
20260504223022 63 195 8.0 13.0 0.00 0.00 0.00 66 1017.7
20260504222305 0 0.0 14.0 0.00 0.00 0.00 1017.6
20260504221803 64 212 11.0 14.0 0.00 0.00 0.00 66 1017.7
20260504221305 64 195 9.0 15.0 0.00 0.00 0.00 66 1017.8
20260504220756 64 207 11.0 16.0 0.00 0.00 0.00 63 1017.8
20260504220255 64 210 10.0 16.0 0.00 0.00 0.00 64 1017.9
20260504215753 65 192 8.0 15.0 0.00 0.00 0.00 65 1018.1
20260504215254 65 190 7.0 12.0 0.00 0.00 0.00 65 1018.1
20260504214754 65 171 6.0 15.0 0.00 0.00 0.00 65 1018.2
20260504214255 66 179 7.0 15.0 0.00 0.00 0.00 64 1018.1
20260504213753 65 176 7.0 15.0 0.00 0.00 0.00 65 1018.1
20260504213517 66 189 6.0 13.0 0.00 0.00 0.00 64 1018.2
20260504212752 66 178 7.0 12.0 0.00 0.00 0.00 63 1018.2
20260504212253 65 185 7.0 11.0 0.00 0.00 0.00 64 1018.3
20260504211751 65 142 7.0 12.0 0.00 0.00 0.00 64 1018.2
20260504211252 65 204 6.0 12.0 0.00 0.00 0.00 62 1018.3
20260504210751 65 180 5.0 13.0 0.00 0.00 0.00 63 1018.4
20260504210252 65 207 9.0 13.0 0.00 0.00 0.00 64 1018.4
20260504210013 65 193 8.0 14.0 0.00 0.00 0.00 64 1018.5
20260504205252 65 161 6.0 14.0 0.00 0.00 0.00 66 1018.4
20260504205020 63 200 8.0 15.0 0.00 0.00 0.00 68 1018.4
20260504204250 63 206 11.0 15.0 0.00 0.00 0.00 67 1018.5
20260504203751 64 197 11.0 15.0 0.00 0.00 0.00 64 1018.5
20260504203253 64 196 11.0 15.0 0.00 0.00 0.00 65 1018.4
20260504202751 65 228 11.0 15.0 0.00 0.00 0.00 66 1018.4
20260504202253 65 145 8.0 13.0 0.00 0.00 0.00 63 1018.4
20260504201751 66 161 7.0 12.0 0.00 0.00 0.00 63 1018.3
20260504201500 65 186 6.0 12.0 0.00 0.00 0.00 62 1018.2
20260504201451 66 188 5.0 12.0 0.00 0.00 0.00 63 1018.2
20260504200252 65 203 8.0 14.0 0.00 0.00 0.00 63 1018.3
20260504195751 66 165 9.0 14.0 0.00 0.00 0.00 61 1018.2
20260504195253 66 131 8.0 15.0 0.00 0.00 0.00 61 1018.2
20260504194749 66 173 6.0 15.0 0.00 0.00 0.00 60 1018.2
20260504194250 66 161 7.0 14.0 0.00 0.00 0.00 62 1018.2
20260504193750 65 189 8.0 13.0 0.00 0.00 0.00 62 1018.2
20260504193250 65 165 8.0 13.0 0.00 0.00 0.00 64 1018.3
20260504193008 64 168 8.0 15.0 0.00 0.00 0.00 66 1018.2
20260504192250 63 173 7.0 15.0 0.00 0.00 0.00 68 1018.3
20260504191748 63 204 12.0 15.0 0.00 0.00 0.00 67 1018.5
20260504191250 62 213 11.0 17.0 0.00 0.00 0.00 67 1018.5
20260504190748 62 207 12.0 17.0 0.00 0.00 0.00 67 1018.4
20260504190249 63 206 11.0 17.0 0.00 0.00 0.00 67 1018.4
20260504185749 63 199 12.0 17.0 0.00 0.00 0.00 66 1018.4
20260504185248 64 157 9.0 16.0 0.00 0.00 0.00 64 1018.3
20260504184748 64 207 9.0 16.0 0.00 0.00 0.00 62 1018.3
20260504184248 64 137 8.0 14.0 0.00 0.00 0.00 62 1018.2
20260504183747 65 179 7.0 18.0 0.00 0.00 0.00 63 1017.9
20260504183248 65 190 9.0 18.0 0.00 0.00 0.00 60 1018.1
20260504182747 67 166 8.0 13.0 0.00 0.00 0.00 58 1018.1
20260504182247 68 175 6.0 9.0 0.00 0.00 0.00 61 1018.1
20260504181747 67 161 4.0 15.0 0.00 0.00 0.00 59 1017.8
20260504181247 67 130 7.0 15.0 0.00 0.00 0.00 56 1017.7
20260504180747 67 190 5.0 12.0 0.00 0.00 0.00 56 1017.8
20260504180248 67 173 6.0 12.0 0.00 0.00 0.00 56 1017.8
20260504175748 67 158 4.0 12.0 0.00 0.00 0.00 59 1017.7
20260504175247 66 155 6.0 12.0 0.00 0.00 0.00 60 1017.7
20260504174747 66 166 6.0 13.0 0.00 0.00 0.00 59 1017.6
20260504174247 65 173 5.0 15.0 0.00 0.00 0.00 61 1017.7
20260504173747 64 210 10.0 15.0 0.00 0.00 0.00 60 1017.8
20260504173247 64 192 11.0 15.0 0.00 0.00 0.00 60 1017.6
20260504172747 64 197 9.0 15.0 0.00 0.00 0.00 62 1017.5
20260504172246 63 214 9.0 16.0 0.00 0.00 0.00 63 1017.5
20260504171747 63 197 11.0 16.0 0.00 0.00 0.00 62 1017.6
20260504171246 64 200 11.0 15.0 0.00 0.00 0.00 63 1017.6
20260504170745 65 217 9.0 15.0 0.00 0.00 0.00 62 1017.5
20260504170245 65 200 6.0 12.0 0.00 0.00 0.00 61 1017.5
20260504160246 61 212 4.0 13.0 0.00 0.00 0.00 62 1017.2
20260504150744 59 175 1.0 2.0 0.00 0.01 0.00 71 1017.2
20260504150244 58 192 1.0 2.0 0.00 0.01 0.00 71 1017.2
20260504141231 54 329 4.0 5.0 0.00 0.03 0.00 71 1016.7
20260504140959 54 276 3.0 4.0 0.00 0.03 0.00 70 1016.6
20260504140231 55 276 2.0 5.0 0.00 0.03 0.00 69 1016.5
20260504130731 55 316 2.0 3.0 0.00 0.04 0.00 67 1016.0
20260504130233 55 317 0.0 1.0 0.00 0.04 0.00 67 1016.1
20260504120232 54 21 2.0 4.0 0.00 0.04 0.00 69 1016.0
20260504110231 54 66 2.0 4.0 0.00 0.04 0.00 69 1015.9
20260504100232 54 296 8.0 11.0 0.00 0.04 0.00 70 1016.2
20260504081734 55 288 8.0 11.0 0.00 0.04 0.00 66 1017.0
20260504081233 56 292 7.0 10.0 0.00 0.04 0.00 65 1017.2
20260504080734 56 296 6.0 7.0 0.00 0.04 0.00 64 1017.2
20260504080232 56 286 4.0 6.0 0.00 0.04 0.00 62 1017.3
20260504070231 57 302 0.0 4.0 0.00 0.04 0.00 61 1016.9
20260504060231 58 309 5.0 7.0 0.00 0.04 0.04 59 1016.7
20260504050732 59 276 8.0 11.0 0.00 0.04 0.04 59 1016.7
20260504050232 59 298 6.0 10.0 0.00 0.04 0.04 60 1016.5
20260504045730 59 298 5.0 12.0 0.00 0.04 0.04 60 1016.8
20260504045232 59 283 8.0 13.0 0.00 0.04 0.04 60 1016.6
20260504044731 59 299 6.0 13.0 0.00 0.04 0.04 60 1016.7
20260504044232 59 282 9.0 18.0 0.00 0.04 0.04 60 1016.8
20260504043732 59 292 10.0 18.0 0.00 0.04 0.04 60 1016.8
20260504043500 59 281 14.0 17.0 0.00 0.04 0.04 61 1016.5
20260504042731 59 288 11.0 17.0 0.00 0.04 0.04 62 1016.5
20260504042232 59 300 12.0 17.0 0.00 0.04 0.04 62 1016.4
20260504041728 58 278 12.0 17.0 0.00 0.04 0.04 64 1016.2
20260504041228 58 286 10.0 16.0 0.00 0.04 0.04 64 1016.1
20260504040727 58 317 9.0 15.0 0.00 0.04 0.04 65 1016.0
20260504040227 58 292 9.0 15.0 0.00 0.04 0.04 66 1016.1
20260504035727 58 281 12.0 19.0 0.00 0.04 0.04 67 1016.0
20260504035226 58 259 13.0 19.0 0.00 0.04 0.04 67 1016.1
20260504034944 58 310 12.0 17.0 0.00 0.04 0.04 67 1015.9
20260504034226 58 278 13.0 17.0 0.00 0.04 0.04 67 1015.7
20260504034208 58 299 11.0 15.0 0.00 0.04 0.04 68 1015.6
20260504033227 58 282 9.0 16.0 0.00 0.04 0.04 68 1015.7
20260504032727 58 289 10.0 19.0 0.00 0.04 0.04 67 1015.8
20260504032450 58 278 14.0 19.0 0.00 0.04 0.04 67 1015.8
20260504031726 58 257 10.0 19.0 0.00 0.04 0.04 67 1015.8
20260504031225 59 257 10.0 15.0 0.00 0.04 0.04 68 1015.9
20260504030726 59 285 10.0 19.0 0.00 0.04 0.04 69 1015.7
20260504030225 59 268 12.0 20.0 0.00 0.04 0.04 68 1015.7
20260504025724 59 286 12.0 20.0 0.00 0.04 0.04 68 1015.9
20260504025225 59 255 8.0 13.0 0.00 0.04 0.04 69 1015.8
20260504024724 59 276 7.0 13.0 0.00 0.04 0.04 68 1015.8
20260504024225 59 259 8.0 14.0 0.00 0.04 0.04 68 1015.7
20260504023724 59 269 9.0 18.0 0.00 0.04 0.04 68 1015.7
20260504023224 60 264 11.0 18.0 0.00 0.04 0.04 67 1015.6
20260504022725 60 257 11.0 17.0 0.00 0.04 0.04 67 1015.6
20260504022442 60 251 8.0 15.0 0.00 0.04 0.04 67 1015.7
20260504021723 60 241 9.0 15.0 0.00 0.04 0.04 67 1015.8
20260504021226 60 252 9.0 16.0 0.00 0.04 0.04 66 1015.8
20260504020725 60 233 7.0 16.0 0.00 0.04 0.04 66 1015.7
20260504020224 60 259 8.0 13.0 0.00 0.04 0.04 66 1015.5
20260504015945 60 265 6.0 13.0 0.00 0.04 0.04 66 1015.5
20260504015224 60 272 7.0 16.0 0.00 0.04 0.04 66 1015.7
20260504014725 60 299 9.0 16.0 0.00 0.04 0.04 66 1015.6
20260504014224 60 262 6.0 12.0 0.00 0.04 0.04 66 1015.8
20260504013724 60 245 7.0 11.0 0.00 0.04 0.04 67 1015.8
20260504013224 60 237 6.0 10.0 0.00 0.04 0.04 67 1015.6
20260504012724 60 219 5.0 6.0 0.00 0.04 0.04 67 1015.5
20260504012223 60 243 4.0 6.0 0.00 0.04 0.04 68 1015.2
20260504011947 60 251 5.0 7.0 0.00 0.04 0.04 67 1015.5
20260504011223 60 244 4.0 9.0 0.00 0.04 0.04 68 1015.6
20260504010725 60 206 4.0 10.0 0.00 0.04 0.04 67 1015.5
20260504010223 60 195 4.0 10.0 0.00 0.04 0.04 67 1015.7
20260504005722 60 223 5.0 7.0 0.00 0.04 0.04 68 1015.7
20260504005222 60 240 5.0 7.0 0.00 0.04 0.04 69 1015.7
20260504004721 60 196 5.0 7.0 0.00 0.04 0.04 70 1015.7
20260504004221 60 217 6.0 7.0 0.00 0.04 0.04 70 1015.7
20260504003722 60 179 6.0 7.0 0.00 0.04 0.04 70 1015.8
20260504003221 60 213 4.0 9.0 0.00 0.04 0.04 71 1015.6
20260504002721 60 207 6.0 9.0 0.00 0.04 0.04 70 1015.7
20260504002222 60 196 6.0 11.0 0.00 0.04 0.04 70 1015.7
20260504001945 60 223 8.0 11.0 0.00 0.04 0.04 70 1015.8
20260504001221 60 247 6.0 11.0 0.00 0.04 0.04 71 1015.9
20260504000721 60 217 6.0 11.0 0.00 0.04 0.04 71 1015.7
20260504000708 60 212 8.0 11.0 0.00 0.04 0.04 71 1015.8
20260503235944 60 219 7.0 12.0 0.00 0.04 0.04 71 1015.9
20260503235220 60 200 8.0 12.0 0.00 0.04 0.04 70 1015.8
20260503234721 61 189 8.0 12.0 0.00 0.04 0.04 70 1015.7